This demonstration page uses our WeatherBlox Daily Observations layout. Learn more.

Left ArrowRight Arrow

41.55636, -103.73856

Hourly Observations for July 4, 2022

Temp ( °F °C ) Dew Point ( °F °C ) Humidity (%) Winds ( mph kmh ) Pressure ( in mb ) Visibility ( mi km ) Precip ( " mm )
12:58 am 00:58 Clear 67 19.7 50 10.1 54 54 S 8 13 29.69 1005 10 16 0.00 0.00
1:58 am 01:58 Partly Cloudy 63 17.2 51 10.8 66 66 NW 3 6 29.71 1006 10 16 0.00 0.00
2:58 am 02:58 Mostly Clear 62 16.6 51 10.4 67 67 SSW 8 13 29.71 1006 10 16 0.00 0.00
3:58 am 03:58 Clear 65 18.4 49 9.2 55 55 SSW 9 15 29.70 1006 10 16 0.00 0.00
4:58 am 04:58 Clear 64 17.6 49 9.7 60 60 WSW 8 13 29.71 1006 10 16 0.00 0.00
5:58 am 05:58 Sunny 61 16.2 50 9.8 66 66 SW 7 11 29.77 1008 10 16 0.00 0.00
6:58 am 06:58 Sunny 64 17.6 51 10.5 63 63 SW 6 9 29.79 1009 10 16 0.00 0.00
7:58 am 07:58 Sunny 71 21.9 49 9.4 45 45 W 5 7 29.80 1009 10 16 0.00 0.00
8:58 am 08:58 Sunny 77 25.2 47 8.2 34 34 NW 8 13 29.80 1009 10 16 0.00 0.00
9:58 am 09:58 Sunny 81 27.4 47 8.3 30 30 NW 6 9 29.81 1009 10 16 0.00 0.00
10:58 am 10:58 Sunny 85 29.3 43 6 23 23 WNW 7 11 29.80 1009 10 16 0.00 0.00
11:58 am 11:58 Sunny 89 31.9 43 6.1 20 20 NNW 8 13 29.78 1008 10 16 0.00 0.00
12:58 pm 12:58 Sunny 93 33.7 41 5.2 17 17 NW 9 15 29.75 1008 10 16 0.00 0.00
1:58 pm 13:58 Sunny 92 33.6 43 6 18 18 NNW 10 17 29.75 1007 10 16 0.00 0.00
2:58 pm 14:58 Sunny 92 33.1 44 6.4 19 19 NE 7 11 29.74 1007 10 16 0.00 0.00
3:58 pm 15:58 Partly Cloudy 91 32.7 42 5.3 18 18 SE 6 9 29.74 1007 10 16 0.00 0.00
4:58 pm 16:58 Cloudy 85 29.4 44 6.7 24 24 WSW 16 26 29.81 1009 10 16 0.00 0.00
5:58 pm 17:58 Cloudy 79 26.2 47 8.6 33 33 NE 14 22 29.83 1010 10 16 0.00 0.00
6:58 pm 18:58 Sunny 82 27.6 44 6.4 26 26 ESE 10 17 29.78 1008 10 16 0.00 0.00
7:58 pm 19:58 Partly Cloudy 78 25.7 45 7.3 31 31 Calm 29.77 1008 10 16 0.00 0.00
8:58 pm 20:58 Mostly Clear 74 23.1 48 8.8 40 40 NNW 6 9 29.79 1009 10 16 0.00 0.00
9:58 pm 21:58 Clear 72 22.1 47 8.6 42 42 SW 3 6 29.80 1009 10 16 0.00 0.00
10:58 pm 22:58 Mostly Cloudy 68 19.9 51 10.3 54 54 E 9 15 29.80 1009 10 16 0.00 0.00
11:58 pm 23:58 Cloudy 68 20.1 51 10.5 54 54 Calm 29.82 1010 10 16 0.00 0.00

Powered by AerisWeather